Home   Weather   Seoul   Past weeks
Flag for South Korea

Past Weather in Seoul, South Korea — Yesterday and Last 2 Weeks

Now
66 °F

Scattered clouds.


Feels Like: 66 °F
Forecast: 65 / 47 °F
Wind: 10 mph from Northwest

Location: Seoul / Kimp'O International Airport

Current Time: Oct 14, 2019 at 1:11:39 pm

Latest Report: Oct 14, 2019 at 12:00 pm


Visibility: N/A

Pressure: 30.27 "Hg

Humidity: 49%

Dew Point: 46 °F

Location of SeoulLocation

Past Weather in Seoul — Graph

°F

Seoul Temperature Yesterday

Maximum temperature yesterday: 73 °F (at 3:00 pm)
Minimum temperature yesterday: 48 °F (at 7:00 am)
Average temperature yesterday: 60 °F

High & Low Weather Summary for the Past Weeks

 TemperatureHumidityPressure
High84 °F (Oct 3, 3:00 pm)100% (Sep 29, 11:00 pm)30.27 "Hg (Sep 29, 11:00 pm)
Low43 °F (Oct 9, 6:00 am)30% (Oct 8, 4:00 pm)29.59 "Hg (Oct 3, 3:00 am)
Average65 °F77%30.02 "Hg
* Reported Sep 29 12:00 pm — Oct 14 12:00 pm, Seoul. Weather by CustomWeather, © 2019

Note: Actual official high and low records may vary slightly from our data, if they occured in-between our weather recording intervals... More about our weather records

Advertising

Seoul Weather History for the Previous 24 Hours

Scroll right to see more
 ConditionsComfort  
Time TempWeatherWind HumidityBarometerVisibility
12:00 pm
Mon, Oct 14
66 °FScattered clouds.10 mph49%30.27 "HgN/A
11:00 am64 °FPartly sunny.8 mph60%30.27 "HgN/A
10:00 am63 °FSunny.12 mph64%30.27 "Hg10 mi
9:00 am59 °FPartly sunny.9 mph82%30.27 "HgN/A
8:00 am57 °FScattered clouds.1 mph88%30.27 "HgN/A
7:00 am54 °FSunny.3 mph94%30.24 "Hg10 mi
6:00 am52 °FClear.2 mph100%30.24 "Hg5 mi
5:00 am54 °FClear.3 mph100%30.21 "Hg6 mi
4:00 am54 °FClear.5 mph94%30.21 "Hg5 mi
3:00 am54 °FClear.1 mph94%30.21 "Hg6 mi
2:00 am54 °FClear.2 mph94%30.21 "Hg6 mi
1:00 am55 °FClear.2 mph94%30.21 "Hg10 mi
12:00 am57 °FClear.1 mph88%30.21 "Hg10 mi
11:00 pm
Sun, Oct 13
57 °FClear.3 mph88%30.21 "Hg10 mi
10:00 pm57 °FClear.3 mph82%30.21 "Hg10 mi
9:00 pm57 °FClear.3 mph82%30.21 "Hg10 mi
8:00 pm59 °FClear.3 mph82%30.18 "Hg10 mi
7:00 pm63 °FClear.5 mph73%30.18 "Hg10 mi
6:00 pm66 °FPassing clouds.5 mph60%30.15 "HgN/A
5:00 pm72 °FSunny.2 mph44%30.15 "Hg10 mi
4:00 pm73 °FPassing clouds.5 mph38%30.15 "HgN/A
3:00 pm73 °FSunny.3 mph38%30.15 "Hg10 mi
2:00 pm72 °FSunny.3 mph44%30.15 "Hg10 mi
1:00 pm70 °FPassing clouds.6 mph43%30.18 "HgN/A
Weather by CustomWeather, © 2019

See weather overview